When you browse on this site, cookies collect data to enhance your experience and personalize the content and advertising you see.
Visit our Privacy Policy to learn more. By continuing to use the site, you agree to this use of cookies and data.
  • In Schweiz
  • Länderverzeichnis
  • Für 7 Tage
  • Wassertemperatur
  • Wetterkarte
  • Widgets
  • user-avatar
    Anmelden

    Stündliche Wetter Marratxi

    Heute, 18 September, Mittwoch

    Zeit Temperatur Niederschläge Wind Luftdruck Luftfeuchtigkeit
    00:00 +24°C° 0 mm 2 m/S 750 mmHg 89%
    01:00 +24°C° 0 mm 2 m/S 750 mmHg 90%
    02:00 +23°C° 0 mm 1 m/S 749 mmHg 91%
    03:00 +23°C° 0 mm 1 m/S 748 mmHg 92%
    04:00 +23°C° 0 mm 1 m/S 749 mmHg 91%
    05:00 +23°C° 0 mm 1 m/S 749 mmHg 90%
    06:00 +23°C° 0 mm 2 m/S 749 mmHg 87%
    07:00 +24°C° 0 mm 2 m/S 749 mmHg 80%
    08:00 +26°C° 0 mm 2 m/S 750 mmHg 73%
    09:00 +27°C° 0 mm 2 m/S 750 mmHg 66%
    10:00 +28°C° 0 mm 2 m/S 750 mmHg 63%
    11:00 +29°C° 0 mm 2 m/S 751 mmHg 61%
    12:00 +29°C° 0 mm 2 m/S 751 mmHg 59%
    13:00 +29°C° 0 mm 2 m/S 750 mmHg 60%
    14:00 +29°C° 0 mm 2 m/S 750 mmHg 61%
    15:00 +29°C° 0 mm 2 m/S 750 mmHg 62%
    16:00 +28°C° 0 mm 2 m/S 750 mmHg 66%
    17:00 +27°C° 0 mm 1 m/S 750 mmHg 71%
    18:00 +26°C° 0 mm 1 m/S 750 mmHg 76%
    19:00 +25°C° 0 mm 1 m/S 750 mmHg 78%
    20:00 +25°C° 0 mm 1 m/S 750 mmHg 81%
    21:00 +25°C° 0 mm 1 m/S 750 mmHg 83%
    22:00 +24°C° 0 mm 1 m/S 750 mmHg 84%
    23:00 +24°C° 0 mm 1 m/S 750 mmHg 86%

    Morgen, 19 September, Donnerstag

    Zeit Temperatur Niederschläge Wind Luftdruck Luftfeuchtigkeit
    00:00 +23°C° 0 mm 1 m/S 750 mmHg 87%
    01:00 +23°C° 0 mm 1 m/S 750 mmHg 88%
    02:00 +23°C° 0 mm 1 m/S 750 mmHg 89%
    03:00 +23°C° 0 mm 1 m/S 750 mmHg 90%
    04:00 +23°C° 0 mm 1 m/S 750 mmHg 89%
    05:00 +21°C° 0 mm 0 m/S 750 mmHg 88%
    06:00 +21°C° 0 mm 0 m/S 750 mmHg 88%
    07:00 +22°C° 0 mm 0 m/S 751 mmHg 80%
    08:00 +26°C° 0 mm 1 m/S 751 mmHg 72%
    09:00 +27°C° 0 mm 1 m/S 751 mmHg 64%
    10:00 +28°C° 0 mm 2 m/S 751 mmHg 61%
    11:00 +29°C° 0 mm 2 m/S 751 mmHg 58%
    12:00 +30°C° 0 mm 3 m/S 751 mmHg 55%
    13:00 +29°C° 0 mm 3 m/S 751 mmHg 57%
    14:00 +29°C° 0 mm 3 m/S 751 mmHg 60%
    15:00 +28°C° 0 mm 4 m/S 751 mmHg 63%
    16:00 +27°C° 0 mm 3 m/S 751 mmHg 68%
    17:00 +26°C° 0 mm 3 m/S 751 mmHg 73%
    18:00 +25°C° 0 mm 2 m/S 751 mmHg 78%
    19:00 +25°C° 0 mm 2 m/S 751 mmHg 81%
    20:00 +24°C° 0 mm 2 m/S 752 mmHg 83%
    21:00 +24°C° 0 mm 1 m/S 752 mmHg 86%
    22:00 +24°C° 0 mm 1 m/S 752 mmHg 87%
    23:00 +23°C° 0 mm 1 m/S 752 mmHg 88%

    übermorgen, 20 September, Freitag

    Zeit Temperatur Niederschläge Wind Luftdruck Luftfeuchtigkeit
    00:00 +23°C° 0 mm 2 m/S 752 mmHg 89%
    01:00 +23°C° 0 mm 2 m/S 751 mmHg 90%
    02:00 +23°C° 0 mm 2 m/S 751 mmHg 91%
    03:00 +21°C° 0 mm 2 m/S 751 mmHg 91%
    04:00 +21°C° 0 mm 2 m/S 751 mmHg 91%
    05:00 +21°C° 0 mm 2 m/S 751 mmHg 92%
    06:00 +21°C° 0 mm 2 m/S 751 mmHg 92%
    07:00 +24°C° 0 mm 2 m/S 751 mmHg 83%
    08:00 +25°C° 0 mm 3 m/S 752 mmHg 75%
    09:00 +26°C° 0 mm 3 m/S 752 mmHg 67%
    10:00 +27°C° 0 mm 4 m/S 752 mmHg 64%
    11:00 +28°C° 0 mm 4 m/S 752 mmHg 61%
    12:00 +29°C° 0 mm 4 m/S 752 mmHg 58%
    13:00 +28°C° 0 mm 4 m/S 751 mmHg 59%
    14:00 +28°C° 0 mm 4 m/S 751 mmHg 60%
    15:00 +28°C° 0 mm 4 m/S 751 mmHg 61%
    16:00 +27°C° 0 mm 4 m/S 750 mmHg 67%
    17:00 +26°C° 0 mm 4 m/S 750 mmHg 74%
    18:00 +25°C° 0 mm 5 m/S 750 mmHg 80%
    19:00 +25°C° 0 mm 5 m/S 750 mmHg 80%
    20:00 +25°C° 0 mm 5 m/S 750 mmHg 81%
    21:00 +23°C° 0 mm 6 m/S 750 mmHg 81%
    22:00 +23°C° 0.1 mm 5 m/S 750 mmHg 83%
    23:00 +23°C° 0.1 mm 5 m/S 749 mmHg 84%

    21 September, Samstag

    Zeit Temperatur Niederschläge Wind Luftdruck Luftfeuchtigkeit
    00:00 +23°C° 0.1 mm 5 m/S 749 mmHg 86%
    01:00 +23°C° 0.8 mm 4 m/S 749 mmHg 87%
    02:00 +24°C° 0.8 mm 3 m/S 749 mmHg 88%
    03:00 +24°C° 0.8 mm 3 m/S 748 mmHg 89%
    04:00 +23°C° 0.1 mm 4 m/S 748 mmHg 87%
    05:00 +23°C° 0.1 mm 4 m/S 748 mmHg 85%
    06:00 +23°C° 0.1 mm 5 m/S 748 mmHg 83%
    07:00 +26°C° 0 mm 5 m/S 748 mmHg 77%
    08:00 +27°C° 0 mm 4 m/S 748 mmHg 72%
    09:00 +28°C° 0 mm 4 m/S 749 mmHg 66%
    10:00 +29°C° 0 mm 4 m/S 749 mmHg 63%
    11:00 +29°C° 0 mm 5 m/S 748 mmHg 60%
    12:00 +30°C° 0 mm 5 m/S 748 mmHg 57%
    13:00 +30°C° 0 mm 5 m/S 748 mmHg 55%
    14:00 +30°C° 0 mm 4 m/S 747 mmHg 53%
    15:00 +30°C° 0 mm 3 m/S 747 mmHg 51%
    16:00 +29°C° 0 mm 3 m/S 747 mmHg 57%
    17:00 +28°C° 0 mm 2 m/S 747 mmHg 63%
    18:00 +26°C° 0 mm 2 m/S 747 mmHg 69%
    19:00 +26°C° 0 mm 2 m/S 747 mmHg 69%
    20:00 +26°C° 0 mm 2 m/S 747 mmHg 70%
    21:00 +26°C° 0 mm 2 m/S 747 mmHg 70%
    22:00 +26°C° 0 mm 2 m/S 747 mmHg 66%
    23:00 +26°C° 0 mm 2 m/S 747 mmHg 62%

    22 September, Sonntag

    Zeit Temperatur Niederschläge Wind Luftdruck Luftfeuchtigkeit
    00:00 +26°C° 0 mm 2 m/S 747 mmHg 58%
    01:00 +26°C° 0 mm 2 m/S 747 mmHg 62%
    02:00 +25°C° 0 mm 2 m/S 747 mmHg 66%
    03:00 +25°C° 0 mm 2 m/S 747 mmHg 70%
    04:00 +25°C° 0 mm 2 m/S 747 mmHg 72%
    05:00 +24°C° 0 mm 2 m/S 747 mmHg 73%
    06:00 +24°C° 0 mm 1 m/S 747 mmHg 75%
    07:00 +26°C° 0 mm 2 m/S 748 mmHg 67%
    08:00 +27°C° 0 mm 3 m/S 748 mmHg 58%
    09:00 +29°C° 0 mm 3 m/S 749 mmHg 50%
    10:00 +29°C° 0 mm 4 m/S 749 mmHg 48%
    11:00 +30°C° 0 mm 4 m/S 749 mmHg 46%
    12:00 +30°C° 0 mm 5 m/S 749 mmHg 44%
    13:00 +30°C° 0 mm 5 m/S 749 mmHg 46%
    14:00 +30°C° 0 mm 5 m/S 748 mmHg 48%
    15:00 +29°C° 0 mm 5 m/S 748 mmHg 50%
    16:00 +28°C° 0 mm 5 m/S 748 mmHg 56%
    17:00 +27°C° 0 mm 4 m/S 749 mmHg 62%
    18:00 +26°C° 0 mm 4 m/S 749 mmHg 68%
    19:00 +25°C° 0 mm 4 m/S 749 mmHg 70%
    20:00 +25°C° 0 mm 3 m/S 750 mmHg 72%
    21:00 +25°C° 0 mm 3 m/S 750 mmHg 74%
    22:00 +24°C° 0 mm 3 m/S 751 mmHg 76%
    23:00 +24°C° 0 mm 2 m/S 751 mmHg 78%

    23 September, Montag

    Zeit Temperatur Niederschläge Wind Luftdruck Luftfeuchtigkeit
    00:00 +24°C° 0 mm 2 m/S 751 mmHg 80%
    01:00 +23°C° 0 mm 2 m/S 751 mmHg 82%
    02:00 +22°C° 0 mm 3 m/S 751 mmHg 83%
    03:00 +22°C° 0 mm 3 m/S 751 mmHg 85%
    04:00 +21°C° 0 mm 3 m/S 751 mmHg 84%
    05:00 +21°C° 0 mm 4 m/S 752 mmHg 84%
    06:00 +21°C° 0 mm 5 m/S 752 mmHg 84%
    07:00 +22°C° 0 mm 4 m/S 752 mmHg 77%
    08:00 +23°C° 0 mm 4 m/S 753 mmHg 71%
    09:00 +25°C° 0 mm 4 m/S 753 mmHg 64%
    10:00 +26°C° 0 mm 4 m/S 753 mmHg 60%
    11:00 +27°C° 0 mm 4 m/S 754 mmHg 56%
    12:00 +28°C° 0 mm 3 m/S 754 mmHg 52%
    13:00 +27°C° 0 mm 3 m/S 753 mmHg 53%
    14:00 +27°C° 0 mm 3 m/S 753 mmHg 54%
    15:00 +26°C° 0 mm 3 m/S 753 mmHg 56%
    16:00 +26°C° 0 mm 2 m/S 753 mmHg 59%
    17:00 +25°C° 0 mm 2 m/S 753 mmHg 63%
    18:00 +24°C° 0 mm 1 m/S 753 mmHg 66%
    19:00 +23°C° 0 mm 1 m/S 753 mmHg 68%
    20:00 +23°C° 0 mm 1 m/S 754 mmHg 70%
    21:00 +22°C° 0 mm 1 m/S 754 mmHg 72%
    22:00 +22°C° 0 mm 1 m/S 754 mmHg 73%
    23:00 +22°C° 0 mm 1 m/S 754 mmHg 74%
    Mehr zeigen